[[{"header":{"parameterUnit":"m.s-1","parameterCategory":1,"la1":30.2991,"la2":30.254,"lo1":-89.0895,"lo2":-89.0444,"dy":0.0017,"dx":0.0017,"nx":28,"ny":28,"refTime":"2024-06-17T21:00:00:Z","depth":0,"parameterNumber":2,"parameterNumberName":"U-component_of_WINDS"},"data":[0,0,0,0,0,0,0,0,0,0,0,0,0,0,0,0,0,0,0,0,0,0,0,0,0,0,0,0,0,0,0,0,0,0,0,0,0,0,0,0,0,0,0,0,0,0,0,0,0,0,0,0,0,0,0,0,0,0,-5.7114,-5.7115,0,-5.7155,-5.7156,-5.7156,-5.6976,-5.6971,-5.6966,-5.6961,-5.7005,-5.701,-5.7016,0,0,0,0,0,0,0,0,0,0,0,0,0,-5.688,-5.6885,-5.7114,-5.7115,-5.7115,-5.7155,-5.7156,-5.7156,-5.6977,-5.6971,-5.6964,-5.6958,-5.7003,-5.701,-5.7017,0,0,0,0,0,0,0,0,0,0,0,0,0,-5.6958,-5.6887,-5.7114,-5.7031,-5.7023,-5.7155,-5.7156,-5.7157,-5.6979,-5.6971,-5.6963,-5.6955,-5.7,-5.7009,-5.7018,-5.7232,0,0,-5.7046,-5.705,0,0,0,0,0,0,0,0,-5.6954,-5.6967,-5.7042,-5.7037,-5.7029,-5.7052,-5.7089,-5.7182,-5.6981,-5.6996,-5.6961,-5.6951,-5.7027,-5.7033,-5.7059,-5.7235,-5.7236,-5.7047,-5.7052,-5.7056,-5.7059,0,0,0,0,0,0,0,-5.6948,-5.6964,-5.713,-5.7044,-5.7035,-5.6991,-5.6993,-5.7106,-5.7055,-5.6994,-5.6981,-5.6988,-5.7022,-5.705,-5.7058,-5.7237,-5.7046,-5.7055,-5.706,-5.7064,-5.7588,-5.7596,0,0,0,0,0,0,-5.6954,-5.696,-5.7129,-5.7132,-5.6971,-5.7002,-5.7004,-5.7053,-5.7053,-5.7046,-5.6995,-5.698,-5.7039,-5.7048,-5.7059,-5.7307,-5.7056,-5.7065,-5.707,-5.7579,-5.759,-5.7599,0,0,0,0,0,0,-5.695,-5.6971,-5.7127,-5.7043,-5.7059,-5.7014,-5.707,-5.7058,-5.7086,-5.7054,-5.7044,-5.7033,-5.7033,-5.7046,-5.719,-5.7306,-5.7069,-5.7077,-5.7569,-5.7583,-5.7594,-5.7808,0,0,0,0,0,0,-5.6944,-5.697,-5.7051,-5.7046,-5.7064,-5.7258,-5.7078,-5.7064,-5.7102,-5.7082,-5.7088,-5.7081,-5.7028,-5.7177,-5.7199,-5.7315,-5.7084,-5.7559,-5.7575,-5.759,-5.779,-5.7826,-5.7857,0,0,0,0,0,-5.6936,-5.7111,-5.7057,-5.7078,-5.7165,-5.7265,-5.7276,-5.721,-5.7112,-5.7193,-5.7172,-5.7081,-5.7291,-5.7193,-5.7216,-5.7337,-5.7551,-5.7571,-5.7589,-5.7775,-5.7819,-5.7856,0,0,0,0,0,0,-5.7132,-5.7109,-5.7048,-5.7226,-5.7249,-5.7235,-5.7334,-5.726,-5.7311,-5.7291,-5.7208,-5.7211,-5.7368,-5.7367,-5.7259,-5.7543,-5.7404,-5.7428,-5.7537,-5.7579,-5.7612,-5.7608,-5.7092,0,0,0,0,0,-5.7196,-5.728,-5.7255,-5.7415,-5.7429,-5.7381,-5.7422,-5.7369,-5.739,-5.7399,-5.7388,-5.7412,-5.7482,-5.7531,-5.7595,-5.779,-5.7787,-5.7884,-5.7917,-5.7945,-5.7967,-5.8067,-5.8109,-5.7661,-5.7661,-5.7661,0,0,-5.733,-5.7327,-5.7385,-5.7454,-5.7465,-5.7553,-5.739,-5.749,-5.7554,-5.7414,-5.7547,-5.7542,-5.7562,-5.7732,-5.7806,-5.7736,-5.809,-5.7969,-5.7992,-5.7998,-5.8091,-5.8133,-5.8171,-5.7674,-5.7672,-5.767,0,0,-5.7616,-5.7624,-5.7756,-5.777,-5.7789,-5.7756,-5.7788,-5.7785,-5.7775,-5.7908,-5.7804,-5.7879,-5.8004,-5.8022,-5.8048,-5.834,-5.8257,-5.8364,-5.8538,-5.8637,-5.8672,-5.8703,-5.8804,-5.8842,-5.8386,-5.8386,-5.8387,0,-5.7779,-5.7906,-5.7834,-5.794,-5.7973,-5.785,-5.7982,-5.8,-5.804,-5.8065,-5.7986,-5.8138,-5.8143,-5.8314,-5.8385,-5.8411,-5.8444,-5.8362,-5.8673,-5.8703,-5.873,-5.8826,-5.8865,-5.8399,-5.8397,-5.8396,-5.8395,0,-5.8104,-5.8195,-5.8299,-5.8339,-5.8384,-5.8504,-5.8448,-5.8502,-5.8446,-5.8421,-5.8557,-5.856,-5.862,-5.8658,-5.8605,-5.8821,-5.8776,-5.8687,-5.8545,-5.8787,-5.8875,-5.8912,-5.8417,-5.8412,-5.8409,-5.8406,0,0,-5.8515,-5.8512,-5.8551,-5.8566,-5.8578,-5.8646,-5.876,-5.8819,-5.8865,-5.8897,-5.8989,-5.9097,-5.9013,-5.9043,-5.8991,-5.9078,-5.9306,-5.8977,-5.8976,-5.9036,-5.9541,-5.9606,-5.965,-5.9252,-5.9259,-5.9264,-5.9538,0,-5.8793,-5.8985,-5.8923,-5.9118,-5.9199,-5.9083,-5.9182,-5.9199,-5.9179,-5.9245,-5.9222,-5.9299,-5.9185,-5.9201,-5.9282,-5.9262,-5.9406,-5.9241,-5.9335,-5.9339,-5.9331,-5.9697,-5.9767,-6.0025,-5.9573,-5.9579,-5.9583,0,-5.9143,-5.9187,-5.939,-5.9385,-5.9417,-5.9507,-5.9554,-5.9619,-5.9637,-5.9616,-5.9648,-5.9578,-5.9688,-5.9548,-5.9698,-5.9587,-5.9622,-5.9618,-5.9626,-5.963,-5.9474,-5.9708,-6.0106,-6.0144,-5.9638,-5.9633,-5.9629,0,-5.9418,-5.9528,-5.9663,-5.968,-5.968,-5.9745,-5.9748,-5.9757,-5.9796,-5.9838,-5.9862,-5.9917,-5.9947,-5.9991,-5.9937,-5.9841,-6.0094,-5.995,-6.0078,-6.008,-6.0135,-6.0131,-6.0541,-6.0163,-6.0163,-6.0162,-6.0161,0,-5.9733,-5.9862,-5.9786,-5.9869,-6.0008,-5.9935,-6.0076,-6.0065,-6.0075,-6.0153,-6.0058,-6.0133,-6.0058,-6.0127,-6.0086,-6.0214,-6.023,-6.0215,-6.0201,-6.0221,-6.0223,-6.0241,-6.0221,-6.0172,-6.017,-6.0168,-6.0166,0,-6.0063,-6.0018,-6.0157,-6.0145,-6.0144,-6.0248,-6.0237,-6.0312,-6.0285,-6.0385,-6.0405,-6.0362,-6.0438,-6.0389,-6.0466,-6.0438,-6.0605,-6.0569,-6.0599,-6.0588,-6.0717,-6.0705,-6.1151,-6.1204,-6.0795,-6.0799,-6.0803,0,-6.0266,-6.0361,-6.0359,-6.0404,-6.0413,-6.0487,-6.0525,-6.0458,-6.0502,-6.0528,-6.06,-6.0668,-6.0717,-6.0844,-6.0819,-6.0877,-6.084,-6.0992,-6.0848,-6.0864,-6.0838,-6.0832,-6.084,-6.102,-6.1025,-6.1029,-6.1032,0,-6.063,-6.0602,-6.0661,-6.0713,-6.0761,-6.0798,-6.0827,-6.087,-6.0801,-6.0856,-6.0931,-6.097,-6.1047,-6.1115,-6.1163,-6.1165,-6.1088,-6.1078,-6.111,-6.113,-6.1142,-6.1134,-6.0675,-6.1068,-6.1064,-6.1062,-6.106,-6.1058,-6.09,-6.0978,-6.0988,-6.1056,-6.1071,-6.11,-6.117,-6.1151,-6.1213,-6.1269,-6.1226,-6.1316,-6.1329,-6.1385,-6.1398,-6.1466,-6.1404,-6.1452,-6.1463,-6.1475,-6.1491,-6.1134,-6.1475,-6.1474,-6.1473,-6.1472,-6.1472,0,-6.1256,-6.1256,-6.132,-6.1363,-6.1417,-6.1339,-6.1367,-6.1417,-6.1496,-6.1516,-6.1566,-6.1652,-6.1717,-6.1698,-6.1755,-6.1814,-6.178,-6.1831,-6.1824,-6.1826,-6.1545,-6.151,-6.1858,-6.1858,-6.1857,-6.1857,-6.1857,-6.1857,-6.1447,-6.1574,-6.1548,-6.1682,-6.1681,-6.1767,-6.1789,-6.1816,-6.183,-6.193,-6.1983,-6.197,-6.1973,-6.203,-6.2086,-6.2078,-6.2102,-6.2167,-6.2147,-6.1884,-6.1846,-6.1809,-6.1776,-6.2173,-6.2174,-6.242,-6.2423,-6.2424]},{"header":{"parameterUnit":"m.s-1","parameterCategory":1,"la1":30.2991,"la2":30.254,"lo1":-89.0895,"lo2":-89.0444,"dy":0.0017,"dx":0.0017,"nx":28,"ny":28,"refTime":"2024-06-17T21:00:00:Z","depth":0,"parameterNumber":3,"parameterNumberName":"V-component_of_WINDS"},"data":[0,0,0,0,0,0,0,0,0,0,0,0,0,0,0,0,0,0,0,0,0,0,0,0,0,0,0,0,0,0,0,0,0,0,0,0,0,0,0,0,0,0,0,0,0,0,0,0,0,0,0,0,0,0,0,0,0,0,-0.364,-0.3639,0,-0.3542,-0.3541,-0.354,-0.3549,-0.3551,-0.3553,-0.3554,-0.3446,-0.3442,-0.3438,0,0,0,0,0,0,0,0,0,0,0,0,0,-0.3828,-0.3824,-0.364,-0.3639,-0.3638,-0.3542,-0.3541,-0.3539,-0.3549,-0.3551,-0.3553,-0.3555,-0.3448,-0.3443,-0.3438,0,0,0,0,0,0,0,0,0,0,0,0,0,-0.3739,-0.3823,-0.3641,-0.3631,-0.363,-0.3542,-0.3541,-0.3539,-0.3549,-0.3551,-0.3553,-0.3556,-0.345,-0.3443,-0.3437,-0.335,0,0,-0.3417,-0.3414,0,0,0,0,0,0,0,0,-0.3744,-0.3733,-0.3634,-0.3632,-0.363,-0.3561,-0.3567,-0.3476,-0.3548,-0.3579,-0.3554,-0.3557,-0.3482,-0.3473,-0.3449,-0.3345,-0.3341,-0.3417,-0.3413,-0.341,-0.3408,0,0,0,0,0,0,0,-0.3751,-0.3737,-0.3601,-0.3632,-0.363,-0.3629,-0.3619,-0.355,-0.3518,-0.3577,-0.3577,-0.3566,-0.3481,-0.3456,-0.3447,-0.3339,-0.3417,-0.3411,-0.3407,-0.3405,-0.3155,-0.3152,0,0,0,0,0,0,-0.376,-0.3742,-0.3604,-0.3598,-0.3694,-0.3624,-0.3613,-0.358,-0.3519,-0.3512,-0.3564,-0.3567,-0.3465,-0.3454,-0.3443,-0.3335,-0.341,-0.3404,-0.34,-0.3157,-0.3154,-0.3151,0,0,0,0,0,0,-0.3764,-0.3748,-0.3608,-0.367,-0.3652,-0.3618,-0.3582,-0.3577,-0.3551,-0.351,-0.3503,-0.3544,-0.3467,-0.3452,-0.3373,-0.3331,-0.3401,-0.3395,-0.3161,-0.3156,-0.3153,-0.312,0,0,0,0,0,0,-0.3769,-0.3749,-0.3718,-0.367,-0.3649,-0.3542,-0.3579,-0.3573,-0.3541,-0.3544,-0.3489,-0.3483,-0.3467,-0.3382,-0.3366,-0.3324,-0.339,-0.3164,-0.3159,-0.3154,-0.3124,-0.3115,-0.3107,0,0,0,0,0,-0.3776,-0.3712,-0.3717,-0.37,-0.361,-0.354,-0.3528,-0.3514,-0.3538,-0.3504,-0.3477,-0.3484,-0.3339,-0.3374,-0.3356,-0.3311,-0.3167,-0.316,-0.3154,-0.3128,-0.3117,-0.3107,0,0,0,0,0,0,-0.3755,-0.3706,-0.371,-0.3629,-0.3589,-0.3542,-0.35,-0.3503,-0.3454,-0.3458,-0.344,-0.3428,-0.3347,-0.3321,-0.3362,-0.3222,-0.3255,-0.3245,-0.3242,-0.3231,-0.3222,-0.3229,-0.3385,0,0,0,0,0,-0.3742,-0.3692,-0.365,-0.3582,-0.3562,-0.3534,-0.3503,-0.3496,-0.3453,-0.3435,-0.3402,-0.3358,-0.3301,-0.3265,-0.3211,-0.3121,-0.3107,-0.308,-0.3072,-0.3065,-0.3056,-0.3002,-0.2988,-0.3131,-0.3131,-0.3131,0,0,-0.3712,-0.3679,-0.3648,-0.3577,-0.3545,-0.349,-0.352,-0.3462,-0.342,-0.3425,-0.3348,-0.3322,-0.3271,-0.3185,-0.3145,-0.3161,-0.3013,-0.3057,-0.3052,-0.3046,-0.2994,-0.298,-0.2968,-0.3126,-0.3127,-0.3128,0,0,-0.3631,-0.3602,-0.3541,-0.3508,-0.3459,-0.3441,-0.3426,-0.3378,-0.3361,-0.3284,-0.3286,-0.3235,-0.314,-0.3102,-0.307,-0.2971,-0.2974,-0.2954,-0.2908,-0.2855,-0.2844,-0.2834,-0.2795,-0.2782,-0.2945,-0.2945,-0.2945,0,-0.36,-0.352,-0.3509,-0.3449,-0.3416,-0.342,-0.3356,-0.3324,-0.3259,-0.3234,-0.3254,-0.3132,-0.3098,-0.3001,-0.2977,-0.2952,-0.2932,-0.2959,-0.2847,-0.2837,-0.2827,-0.279,-0.2776,-0.2943,-0.2943,-0.2943,-0.2943,0,-0.3482,-0.3426,-0.3382,-0.3321,-0.3283,-0.3221,-0.3198,-0.316,-0.3155,-0.3134,-0.3052,-0.3012,-0.2948,-0.2925,-0.292,-0.2826,-0.2837,-0.2852,-0.2885,-0.2811,-0.2776,-0.2762,-0.2939,-0.294,-0.2941,-0.2941,0,0,-0.3385,-0.3317,-0.3301,-0.3271,-0.3217,-0.3172,-0.3109,-0.3048,-0.3015,-0.2969,-0.2913,-0.2831,-0.2844,-0.2808,-0.2798,-0.2752,-0.2671,-0.2772,-0.277,-0.2752,-0.2561,-0.2549,-0.2533,-0.2674,-0.2671,-0.2669,-0.2564,0,-0.3295,-0.3186,-0.3173,-0.3074,-0.302,-0.3021,-0.2966,-0.2924,-0.2902,-0.285,-0.2824,-0.2765,-0.2788,-0.2766,-0.2721,-0.2691,-0.2632,-0.2699,-0.2618,-0.2615,-0.2628,-0.2515,-0.2502,-0.2405,-0.2551,-0.2549,-0.2547,0,-0.3177,-0.3129,-0.3025,-0.2975,-0.2951,-0.2902,-0.2843,-0.2795,-0.2747,-0.2733,-0.2692,-0.2687,-0.2617,-0.2655,-0.2556,-0.2602,-0.2567,-0.2547,-0.2543,-0.2533,-0.2575,-0.2498,-0.2374,-0.2359,-0.2525,-0.2527,-0.2529,0,-0.3112,-0.3021,-0.2947,-0.2922,-0.2863,-0.2827,-0.28,-0.2754,-0.2717,-0.2665,-0.2641,-0.2581,-0.2547,-0.2499,-0.2477,-0.2507,-0.2378,-0.2415,-0.2362,-0.2362,-0.2333,-0.2335,-0.2199,-0.2316,-0.2316,-0.2316,-0.2317,0,-0.3012,-0.2947,-0.2916,-0.287,-0.2797,-0.278,-0.2707,-0.2681,-0.2639,-0.2585,-0.2583,-0.2532,-0.2507,-0.245,-0.2432,-0.2351,-0.2337,-0.2321,-0.2316,-0.232,-0.2321,-0.2295,-0.23,-0.2312,-0.2313,-0.2314,-0.2315,0,-0.2927,-0.2904,-0.2822,-0.2772,-0.2758,-0.2706,-0.2661,-0.2615,-0.2592,-0.2524,-0.2506,-0.247,-0.2404,-0.2377,-0.2295,-0.2283,-0.2188,-0.219,-0.2205,-0.2203,-0.2151,-0.2155,-0.1991,-0.1967,-0.2103,-0.2101,-0.21,0,-0.2863,-0.2814,-0.2759,-0.2723,-0.2695,-0.2638,-0.2601,-0.2582,-0.2542,-0.2482,-0.2441,-0.2375,-0.2321,-0.2214,-0.2178,-0.2115,-0.2113,-0.206,-0.2103,-0.2107,-0.2108,-0.211,-0.2103,-0.2051,-0.205,-0.2049,-0.2048,0,-0.2752,-0.2742,-0.269,-0.2632,-0.2588,-0.2541,-0.2495,-0.2465,-0.2439,-0.2394,-0.2327,-0.2285,-0.2201,-0.2134,-0.2068,-0.2037,-0.2036,-0.2035,-0.2019,-0.202,-0.203,-0.202,-0.218,-0.2038,-0.2039,-0.204,-0.204,-0.2041,-0.2673,-0.2628,-0.2581,-0.2521,-0.2485,-0.2442,-0.2395,-0.2366,-0.231,-0.2242,-0.2234,-0.216,-0.2109,-0.2021,-0.1986,-0.1926,-0.194,-0.1917,-0.1911,-0.1905,-0.19,-0.2041,-0.1915,-0.1915,-0.1915,-0.1915,-0.1915,0,-0.2559,-0.2529,-0.2474,-0.241,-0.2362,-0.2369,-0.2317,-0.2275,-0.2212,-0.2165,-0.2112,-0.2033,-0.1967,-0.1926,-0.1859,-0.1818,-0.1816,-0.1801,-0.1802,-0.1794,-0.1893,-0.1913,-0.1803,-0.1803,-0.1803,-0.1804,-0.1804,-0.1804,-0.2493,-0.2416,-0.24,-0.2303,-0.2273,-0.2203,-0.2172,-0.213,-0.2093,-0.2005,-0.1951,-0.1925,-0.1879,-0.1809,-0.1747,-0.1736,-0.171,-0.1693,-0.1683,-0.1776,-0.1787,-0.1798,-0.1816,-0.1689,-0.1689,-0.1588,-0.1587,-0.1586]}]]